User: anonymous   Login
Location: Adrasan
(36.3319°N, 30.4314°E)
Time: 18:16:15
(UTC+00:00)
Language:

Helios 1B rocket - Orbit

View from above orbital plane
View from above orbital plane
View from above satellite
View from above satellite

Ground track
Ground track

The orbit data is extracted from the following two-line orbital elements,

1 25979U 99064C   24107.51548390  .00018787  00000-0  12426-2 0  9997
2 25979  98.2470 119.0649 0005294 292.6750  67.3915 15.07412388323632
Epoch (UTC): 16 April 2024 12:22:17
Eccentricity: 0.0005294
inclination: 98.2470°
perigee height: 540 km
apogee height: 548 km
right ascension of ascending node: 119.0649°
argument of perigee: 292.6750°
revolutions per day: 15.07412388
mean anomaly at epoch: 67.3915°
orbit number at epoch: 32363

The dashed part of the orbit path shows where the satellite is in the earth's shadow,  

DLR